• In Hungary
  • List of Countries
  • For 7 days
  • Water Temperature
  • Satellite Maps
  • Weather Map
  • News
  • Weather Widgets
  • user-avatar
    Login

    Hourly Weather Carcaixent

    Today, 18 June, Monday

    Time Temperature Precipitation Wind Pressure Humidity
    00:00 +27°C° 0 mm 1 mps 763 mmHg 61%
    01:00 +26°C° 0 mm 1 mps 763 mmHg 61%
    02:00 +26°C° 0 mm 1 mps 763 mmHg 60%
    03:00 +26°C° 0 mm 1 mps 763 mmHg 59%
    04:00 +26°C° 0 mm 1 mps 763 mmHg 57%
    05:00 +26°C° 0 mm 1 mps 763 mmHg 54%
    06:00 +26°C° 0 mm 1 mps 763 mmHg 52%
    07:00 +28°C° 0 mm 2 mps 763 mmHg 47%
    08:00 +29°C° 0 mm 2 mps 763 mmHg 42%
    09:00 +30°C° 0 mm 3 mps 764 mmHg 38%
    10:00 +33°C° 0 mm 3 mps 764 mmHg 36%
    11:00 +34°C° 0 mm 3 mps 763 mmHg 34%
    12:00 +35°C° 0 mm 4 mps 763 mmHg 32%
    13:00 +35°C° 0 mm 4 mps 763 mmHg 33%
    14:00 +35°C° 0 mm 4 mps 763 mmHg 34%
    15:00 +36°C° 0 mm 5 mps 762 mmHg 34%
    16:00 +35°C° 0 mm 5 mps 762 mmHg 39%
    17:00 +33°C° 0 mm 5 mps 762 mmHg 44%
    18:00 +32°C° 0 mm 4 mps 762 mmHg 49%
    19:00 +30°C° 0 mm 4 mps 762 mmHg 53%
    20:00 +29°C° 0 mm 3 mps 763 mmHg 58%
    21:00 +27°C° 0 mm 2 mps 763 mmHg 63%
    22:00 +27°C° 0 mm 2 mps 763 mmHg 63%
    23:00 +26°C° 0 mm 1 mps 763 mmHg 64%

    Tomorrow, 19 June, Tuesday

    Time Temperature Precipitation Wind Pressure Humidity
    00:00 +26°C° 0 mm 1 mps 764 mmHg 65%
    01:00 +25°C° 0 mm 1 mps 764 mmHg 65%
    02:00 +25°C° 0 mm 1 mps 763 mmHg 66%
    03:00 +24°C° 0 mm 1 mps 763 mmHg 66%
    04:00 +24°C° 0 mm 1 mps 763 mmHg 66%
    05:00 +25°C° 0 mm 1 mps 764 mmHg 66%
    06:00 +25°C° 0 mm 1 mps 764 mmHg 66%
    07:00 +26°C° 0 mm 1 mps 764 mmHg 59%
    08:00 +28°C° 0 mm 1 mps 764 mmHg 51%
    09:00 +29°C° 0 mm 2 mps 764 mmHg 44%
    10:00 +31°C° 0 mm 3 mps 764 mmHg 41%
    11:00 +33°C° 0 mm 3 mps 763 mmHg 37%
    12:00 +34°C° 0 mm 4 mps 763 mmHg 34%
    13:00 +34°C° 0 mm 4 mps 763 mmHg 34%
    14:00 +35°C° 0 mm 4 mps 762 mmHg 34%
    15:00 +35°C° 0 mm 5 mps 762 mmHg 34%
    16:00 +34°C° 0 mm 5 mps 762 mmHg 37%
    17:00 +34°C° 0 mm 5 mps 762 mmHg 40%
    18:00 +33°C° 0 mm 5 mps 762 mmHg 43%
    19:00 +30°C° 0 mm 4 mps 762 mmHg 49%
    20:00 +29°C° 0 mm 3 mps 762 mmHg 54%
    21:00 +27°C° 0 mm 3 mps 763 mmHg 59%
    22:00 +27°C° 0 mm 2 mps 763 mmHg 61%
    23:00 +26°C° 0 mm 2 mps 763 mmHg 64%

    Day after tomorrow, 20 June, Wednesday

    Time Temperature Precipitation Wind Pressure Humidity
    00:00 +26°C° 0 mm 1 mps 763 mmHg 66%
    01:00 +25°C° 0 mm 1 mps 762 mmHg 67%
    02:00 +25°C° 0 mm 1 mps 762 mmHg 68%
    03:00 +23°C° 0 mm 0 mps 762 mmHg 69%
    04:00 +23°C° 0 mm 0 mps 762 mmHg 66%
    05:00 +24°C° 0 mm 0 mps 762 mmHg 63%
    06:00 +24°C° 0 mm 0 mps 762 mmHg 60%
    07:00 +28°C° 0 mm 1 mps 762 mmHg 53%
    08:00 +29°C° 0 mm 1 mps 762 mmHg 47%
    09:00 +31°C° 0 mm 2 mps 762 mmHg 41%
    10:00 +33°C° 0 mm 3 mps 762 mmHg 38%
    11:00 +34°C° 0 mm 4 mps 762 mmHg 34%
    12:00 +36°C° 0 mm 4 mps 762 mmHg 31%
    13:00 +36°C° 0 mm 5 mps 761 mmHg 31%
    14:00 +36°C° 0 mm 5 mps 761 mmHg 30%
    15:00 +36°C° 0 mm 5 mps 761 mmHg 30%
    16:00 +35°C° 0 mm 5 mps 761 mmHg 33%
    17:00 +34°C° 0 mm 4 mps 761 mmHg 36%
    18:00 +33°C° 0 mm 4 mps 760 mmHg 39%
    19:00 +31°C° 0 mm 3 mps 761 mmHg 44%
    20:00 +29°C° 0 mm 2 mps 761 mmHg 49%
    21:00 +27°C° 0 mm 1 mps 762 mmHg 55%
    22:00 +27°C° 0 mm 1 mps 762 mmHg 57%
    23:00 +26°C° 0 mm 1 mps 761 mmHg 59%

    21 June, Thursday

    Time Temperature Precipitation Wind Pressure Humidity
    00:00 +24°C° 0 mm 0 mps 761 mmHg 61%
    01:00 +23°C° 0 mm 0 mps 761 mmHg 61%
    02:00 +25°C° 0 mm 1 mps 761 mmHg 61%
    03:00 +25°C° 0 mm 1 mps 761 mmHg 61%
    04:00 +25°C° 0 mm 1 mps 761 mmHg 58%
    05:00 +25°C° 0 mm 1 mps 761 mmHg 55%
    06:00 +26°C° 0 mm 1 mps 761 mmHg 52%
    07:00 +28°C° 0 mm 1 mps 761 mmHg 45%
    08:00 +30°C° 0 mm 1 mps 761 mmHg 38%
    09:00 +31°C° 0 mm 1 mps 761 mmHg 31%
    10:00 +34°C° 0 mm 2 mps 761 mmHg 28%
    11:00 +35°C° 0 mm 3 mps 761 mmHg 25%
    12:00 +36°C° 0 mm 3 mps 761 mmHg 22%
    13:00 +37°C° 0 mm 4 mps 760 mmHg 22%
    14:00 +37°C° 0 mm 4 mps 760 mmHg 23%
    15:00 +37°C° 0 mm 4 mps 760 mmHg 23%
    16:00 +36°C° 0 mm 4 mps 760 mmHg 27%
    17:00 +36°C° 0 mm 4 mps 759 mmHg 30%
    18:00 +35°C° 0 mm 4 mps 759 mmHg 33%
    19:00 +33°C° 0 mm 3 mps 760 mmHg 39%
    20:00 +30°C° 0 mm 2 mps 760 mmHg 45%
    21:00 +29°C° 0 mm 2 mps 760 mmHg 50%
    22:00 +28°C° 0 mm 1 mps 760 mmHg 52%
    23:00 +27°C° 0 mm 1 mps 760 mmHg 54%

    22 June, Friday

    Time Temperature Precipitation Wind Pressure Humidity
    00:00 +27°C° 0 mm 1 mps 760 mmHg 56%
    01:00 +27°C° 0 mm 1 mps 760 mmHg 55%
    02:00 +26°C° 0 mm 1 mps 760 mmHg 55%
    03:00 +26°C° 0 mm 1 mps 759 mmHg 55%
    04:00 +27°C° 0 mm 1 mps 759 mmHg 52%
    05:00 +27°C° 0 mm 1 mps 760 mmHg 49%
    06:00 +28°C° 0 mm 1 mps 760 mmHg 47%
    07:00 +30°C° 0 mm 1 mps 760 mmHg 39%
    08:00 +32°C° 0 mm 1 mps 760 mmHg 32%
    09:00 +34°C° 0 mm 1 mps 760 mmHg 25%
    10:00 +36°C° 0 mm 2 mps 760 mmHg 23%
    11:00 +37°C° 0 mm 3 mps 759 mmHg 21%
    12:00 +38°C° 0 mm 4 mps 759 mmHg 19%
    13:00 +40°C° 0 mm 5 mps 759 mmHg 20%
    14:00 +40°C° 0 mm 5 mps 758 mmHg 21%
    15:00 +40°C° 0 mm 5 mps 758 mmHg 22%
    16:00 +39°C° 0 mm 5 mps 758 mmHg 25%
    17:00 +37°C° 0 mm 5 mps 758 mmHg 28%
    18:00 +36°C° 0 mm 5 mps 758 mmHg 31%
    19:00 +34°C° 0 mm 4 mps 758 mmHg 36%
    20:00 +31°C° 0 mm 3 mps 759 mmHg 42%
    21:00 +29°C° 0 mm 2 mps 759 mmHg 47%
    22:00 +29°C° 0 mm 2 mps 759 mmHg 49%
    23:00 +28°C° 0 mm 2 mps 759 mmHg 51%

    23 June, Saturday

    Time Temperature Precipitation Wind Pressure Humidity
    00:00 +27°C° 0 mm 1 mps 759 mmHg 53%
    01:00 +27°C° 0 mm 1 mps 759 mmHg 54%
    02:00 +26°C° 0 mm 1 mps 759 mmHg 54%
    03:00 +26°C° 0 mm 1 mps 759 mmHg 54%
    04:00 +26°C° 0 mm 1 mps 759 mmHg 53%
    05:00 +27°C° 0 mm 1 mps 759 mmHg 53%
    06:00 +27°C° 0 mm 2 mps 759 mmHg 52%
    07:00 +29°C° 0 mm 2 mps 759 mmHg 47%
    08:00 +30°C° 0 mm 3 mps 759 mmHg 42%
    09:00 +33°C° 0 mm 3 mps 759 mmHg 36%
    10:00 +34°C° 0 mm 4 mps 759 mmHg 35%
    11:00 +35°C° 0 mm 5 mps 759 mmHg 35%
    12:00 +36°C° 0 mm 5 mps 759 mmHg 34%
    13:00 +36°C° 0 mm 5 mps 759 mmHg 37%
    14:00 +36°C° 0 mm 5 mps 758 mmHg 40%
    15:00 +35°C° 0 mm 5 mps 758 mmHg 44%
    16:00 +34°C° 0 mm 5 mps 758 mmHg 50%
    17:00 +32°C° 0 mm 5 mps 758 mmHg 56%
    18:00 +30°C° 0 mm 5 mps 758 mmHg 62%
    19:00 +29°C° 0 mm 4 mps 758 mmHg 67%
    20:00 +28°C° 0 mm 3 mps 759 mmHg 72%
    21:00 +26°C° 0 mm 3 mps 759 mmHg 77%
    22:00 +26°C° 0 mm 3 mps 759 mmHg 80%
    23:00 +25°C° 0 mm 3 mps 759 mmHg 83%
    Show more